Location: Camp Creek
(33.9000°N, 111.8167°W)
Time: 23:19:50
(UTC-07:00)

Cosmos 1656 - Visible Passes

Search period start: 20 August 2017 00:00
Search period end: 30 August 2017 00:00
Orbit: 797 x 851 km, 71.1° (Epoch: 20 August)

Date Brightness Start Highest point End Pass type
(mag) Time Alt. Az. Time Alt. Az. Time Alt. Az.
20 Aug 6.0 03:39:26 10° N 03:44:02 25° ENE 03:48:37 10° ESE visible
20 Aug 4.1 05:22:29 10° NW 05:27:46 40° WSW 05:33:00 10° S visible
20 Aug 7.1 20:10:38 10° WNW 20:12:15 11° NW 20:13:51 10° NW visible
21 Aug 6.1 03:19:16 10° N 03:23:31 21° ENE 03:27:45 10° ESE visible
21 Aug 3.9 05:01:56 10° NNW 05:07:23 47° WSW 05:12:47 10° S visible
21 Aug 6.9 19:49:03 10° W 19:51:39 13° NW 19:54:18 10° NNW visible
22 Aug 6.3 02:59:10 10° NNE 03:03:00 18° ENE 03:06:48 10° E visible
22 Aug 3.7 04:41:25 10° NNW 04:47:00 57° WSW 04:52:31 10° S visible
22 Aug 6.7 19:27:49 10° W 19:31:06 16° NW 19:34:25 10° NNW visible
23 Aug 6.4 02:39:09 10° NNE 02:42:27 15° NE 02:45:43 10° E visible
23 Aug 3.6 04:20:55 10° NNW 04:26:35 68° WSW 04:32:12 10° S visible
24 Aug 6.5 02:19:18 10° NNE 02:21:53 13° NE 02:24:28 10° E visible
24 Aug 3.6 04:00:28 10° NNW 04:06:11 80° WSW 04:11:50 10° SSE visible
25 Aug 6.6 01:59:47 10° NE 02:01:19 11° NE 02:02:49 10° ENE visible
25 Aug 3.6 03:40:01 10° NNW 03:45:46 86° ENE 03:51:26 10° SSE visible
26 Aug 3.8 03:19:37 10° NNW 03:25:20 73° ENE 03:26:10 62° SE visible
26 Aug 5.5 05:06:18 10° WNW 05:07:21 11° W 05:07:21 11° W visible
27 Aug 4.4 02:59:14 10° NNW 03:03:36 49° NNE 03:03:36 49° NNE visible
28 Aug 5.2 02:38:52 10° N 02:41:54 30° N 02:41:54 30° N visible
29 Aug 5.8 02:18:32 10° N 02:20:38 22° N 02:20:38 22° N visible
